Dayton Wright, OH

1:30 AM EDT on July 21, 2017 (GMT -0400)
Dayton-Wright Brothers

Weather History for KMGY - October, 2013

Change the Weather History Date:

Wednesday, October 30, 2013

  Actual Average (KFFO) Record (KFFO)
Temperature  
Mean Temperature 56 °F -  
Max Temperature 63 °F 57 °F 78 °F (2004)
Min Temperature 51 °F 38 °F 26 °F (2008)
Degree Days  
Heating Degree Days 8    
Growing Degree Days 6 (Base 50)    
Moisture  
Dew Point 56 °F    
Average Humidity 93    
Maximum Humidity 100    
Minimum Humidity 77    
Precipitation  
Precipitation 0.10 in - - ()
Sea Level Pressure  
Sea Level Pressure 30.11 in    
Wind  
Wind Speed 6 mph (SSE)    
Max Wind Speed 12 mph    
Max Gust Speed -    
Visibility 3 miles    
Events Fog , Rain    
Averages and records for this station are not official NWS values.
T = Trace of Precipitation, MM = Missing Value Source: NWS Daily Summary

Daily Weather History Graph

Daily Weather History Graph

Search for Another Location

Airport or City:

Trip Planner

Search our weather history database for the weather conditions in past years. The results will help you decide how hot, cold, wet, or windy it might be!

Date:

Astronomy

Oct. 30, 2013 Rise Set
Actual Time 8:03 AM EDT 6:37 PM EDT
Civil Twilight 7:35 AM EDT 7:04 PM EDT
Nautical Twilight 7:03 AM EDT 7:36 PM EDT
Astronomical Twilight 6:32 AM EDT 8:07 PM EDT
Moon 3:52 AM EDT (10/30) 4:21 PM EDT (10/30)
Length of Visible Light 11h 29m
Length of Day
10h 33m
Waning Crescent, 17% of the Moon is Illuminated
Oct 30
Waning Crescent
Nov 3
New
Nov 10
First Quarter
Nov 17
Full
Nov 25
Last Quarter

Hourly Weather History & Observations

Time (EDT) Temp. Dew Point Humidity Pressure Visibility Wind Dir Wind Speed Gust Speed Precip Events Conditions
12:53 AM 53.1 °F 46.0 °F 77% 30.20 in 10.0 mi SE 6.9 mph - 0.00 in   Overcast
1:53 AM 52.0 °F 48.0 °F 86% 30.18 in 9.0 mi SE 5.8 mph - 0.04 in   Overcast
2:53 AM 52.0 °F 48.9 °F 89% 30.17 in 5.0 mi SSE 3.5 mph - 0.04 in Rain Light Rain
3:53 AM 52.0 °F 50.0 °F 93% 30.15 in 5.0 mi SSE 5.8 mph - 0.01 in   Overcast
4:53 AM 53.1 °F 51.1 °F 93% 30.14 in 4.0 mi South 4.6 mph - 0.01 in   Overcast
5:53 AM 54.0 °F 52.0 °F 93% 30.15 in 4.0 mi SSE 4.6 mph - 0.00 in   Overcast
6:13 AM 53.6 °F 51.8 °F 94% 30.16 in 4.0 mi South 4.6 mph - N/A   Overcast
6:53 AM 53.1 °F 51.1 °F 93% 30.15 in 3.0 mi South 5.8 mph - N/A   Overcast
6:58 AM 51.8 °F 51.8 °F 100% 30.14 in 2.5 mi South 6.9 mph - N/A   Mostly Cloudy
7:16 AM 51.8 °F 50.0 °F 94% 30.14 in 2.5 mi South 6.9 mph - N/A   Mostly Cloudy
7:22 AM 51.8 °F 51.8 °F 100% 30.14 in 2.5 mi South 5.8 mph - N/A   Mostly Cloudy
7:53 AM 53.1 °F 51.1 °F 93% 30.14 in 2.5 mi SSE 3.5 mph - N/A   Overcast
8:09 AM 53.6 °F 51.8 °F 94% 30.14 in 1.0 mi South 4.6 mph - N/A   Overcast
8:18 AM 53.6 °F 51.8 °F 94% 30.15 in 0.8 mi South 3.5 mph - N/A   Mist
8:27 AM 53.6 °F 51.8 °F 94% 30.15 in 0.2 mi SSE 3.5 mph - N/A Fog Fog
8:53 AM 54.0 °F 53.1 °F 97% 30.16 in 0.2 mi Calm Calm - N/A Fog Fog
9:28 AM 53.6 °F 53.6 °F 100% 30.18 in 1.0 mi South 3.5 mph - N/A   Mist
9:53 AM 54.0 °F 53.1 °F 97% 30.18 in 2.0 mi Calm Calm - N/A   Overcast
10:53 AM 55.9 °F 55.0 °F 97% 30.17 in 2.5 mi SSE 5.8 mph - N/A   Overcast
11:14 AM 57.2 °F 55.4 °F 94% 30.17 in 3.0 mi SE 3.5 mph - N/A   Overcast
11:53 AM 57.9 °F 55.9 °F 93% 30.17 in 4.0 mi South 4.6 mph - N/A   Overcast
12:53 PM 59.0 °F 55.9 °F 90% 30.16 in 5.0 mi South 4.6 mph - N/A   Overcast
1:22 PM 59.0 °F 55.4 °F 88% 30.14 in 5.0 mi SSE 3.5 mph - N/A   Overcast
1:53 PM 60.1 °F 57.0 °F 90% 30.12 in 6.0 mi SE 3.5 mph - N/A   Overcast
2:53 PM 61.0 °F 57.0 °F 87% 30.10 in 5.0 mi SSE 5.8 mph - N/A   Overcast
3:18 PM 60.8 °F 57.2 °F 88% 30.10 in 2.0 mi SSE 6.9 mph - N/A   Overcast
3:34 PM 60.8 °F 57.2 °F 88% 30.10 in 2.5 mi SSE 6.9 mph - N/A   Overcast
3:36 PM 60.8 °F 57.2 °F 88% 30.10 in 2.0 mi SSE 5.8 mph - N/A   Overcast
3:53 PM 60.1 °F 57.9 °F 93% 30.10 in 1.5 mi SSE 6.9 mph - N/A   Overcast
3:55 PM 60.8 °F 57.2 °F 88% 30.10 in 1.5 mi SSE 6.9 mph - N/A   Overcast
4:22 PM 60.8 °F 59.0 °F 94% 30.09 in 2.5 mi SSE 5.8 mph - N/A   Overcast
4:32 PM 60.8 °F 59.0 °F 94% 30.09 in 3.0 mi SSE 5.8 mph - N/A   Overcast
4:42 PM 60.8 °F 59.0 °F 94% 30.09 in 2.0 mi SSE 6.9 mph - N/A   Overcast
4:53 PM 60.1 °F 59.0 °F 96% 30.09 in 2.0 mi SSE 8.1 mph - N/A   Overcast
5:20 PM 60.8 °F 59.0 °F 94% 30.08 in 1.8 mi SSE 4.6 mph - N/A   Overcast
5:53 PM 60.1 °F 59.0 °F 96% 30.08 in 1.0 mi SSE 6.9 mph - N/A   Overcast
6:00 PM 60.8 °F 59.0 °F 94% 30.08 in 0.8 mi SSE 4.6 mph - N/A   Overcast
6:09 PM 60.8 °F 59.0 °F 94% 30.08 in 0.5 mi South 6.9 mph - N/A Fog Fog
6:53 PM 61.0 °F 60.1 °F 97% 30.07 in 0.5 mi SSE 6.9 mph - N/A Fog Fog
7:50 PM 60.8 °F 60.8 °F 100% 30.08 in 1.0 mi South 6.9 mph - N/A   Mist
7:51 PM 61.0 °F 60.1 °F 97% 30.08 in 1.0 mi South 6.9 mph - N/A   Mist
8:20 PM 62.6 °F 60.8 °F 94% 30.07 in 2.0 mi South 5.8 mph - N/A   Overcast
8:42 PM 62.6 °F 60.8 °F 94% 30.07 in 3.0 mi South 8.1 mph - N/A   Overcast
8:50 PM 62.6 °F 60.8 °F 94% 30.06 in 3.0 mi South 10.4 mph - N/A   Overcast
8:53 PM 62.1 °F 61.0 °F 96% 30.06 in 3.0 mi South 9.2 mph - N/A   Overcast
9:01 PM 62.6 °F 60.8 °F 94% 30.06 in 3.0 mi South 10.4 mph - N/A   Overcast
9:08 PM 62.6 °F 60.8 °F 94% 30.06 in 3.0 mi South 9.2 mph - N/A   Overcast
9:38 PM 62.6 °F 60.8 °F 94% 30.05 in 4.0 mi SSE 8.1 mph - N/A   Mostly Cloudy
9:53 PM 62.1 °F 61.0 °F 96% 30.04 in 4.0 mi South 9.2 mph - N/A   Scattered Clouds
10:53 PM 62.1 °F 61.0 °F 96% 30.03 in 4.0 mi South 9.2 mph - N/A   Scattered Clouds
11:53 PM 62.1 °F 61.0 °F 96% 29.99 in 5.0 mi South 11.5 mph - N/A   Clear